sat.trackr.live / text

‹ back to catalog

KUIPER-00174

NORAD 65787 · 2025-217AB

PAYLOAD ACTIVE UNKNOWN

§ Identity

Operator
Country
US
Launch date
2025-09-25
Launch site
AFETR
Launch vehicle
Mass (kg)
RCS (m²)

External: N2YO · Heavens-Above · Gunter

§ Orbital elements

Epoch: 2026-05-25T00:11:47.934816Z

Period
97.30 min
Inclination
51.9031°
Eccentricity
0.0001194
Mean motion
14.79956818 rev/d
Perigee alt
628.6 km
Apogee alt
630.3 km
Semi-major
7,007.6 km
B*
4.4970e-4
RAAN
50.6674°
Arg perigee
98.1849°
Mean anomaly
261.9249°
Rev number
3,638

§ Raw data

KUIPER-001741 65787U 25217AB  26145.00819369  .00003210  00000+0  44970-3 0  99962 65787  51.9031  50.6674 0001194  98.1849 261.9249 14.79956818 36387

JSON: /api/v1/satellites/65787 · /tle

For live sub-satellite position, see the globe view (requires WebGL).

§ Visibility from observer

Set your observer location to see the next 7 days of passes ≥ 10°. The values pass through the URL so the page stays shareable.

No JS? Fill the form by hand. The geolocation button needs JavaScript.